This is the latest recevied weather packets stored in our database for station/object Hoechsten. If no packets are shown the sender has not sent any weather packets the latest 10 day(s).
| Time | Temp. | Humidity | Pressure | Rain* | Wind** | Luminosity | Snow |
|---|---|---|---|---|---|---|---|
| 1777998731 | 15.56° C | 71% | 1004.1 hPa | 0 mm | - | - | - |
| 1777995130 | 15° C | 74% | 1004 hPa | 0 mm | - | - | - |
| 1777993336 | 14.44° C | 75% | 1003.8 hPa | 0 mm | - | - | - |
| 1777991532 | 15° C | 67% | 1004.1 hPa | 0 mm | - | - | - |
| 1777989730 | 14.44° C | 71% | 1004.1 hPa | 0 mm | - | - | - |
| 1777987930 | 13.89° C | 76% | 1004.3 hPa | 0 mm | - | - | - |
| 1777986130 | 12.78° C | 77% | 1004.3 hPa | 0 mm | - | - | - |
| 1777984330 | 12.78° C | 76% | 1004.2 hPa | 0 mm | - | - | - |
| 1777982530 | 12.22° C | 76% | 1004.3 hPa | 0 mm | - | - | - |
| 1777980730 | 12.22° C | 75% | 1004.6 hPa | 0 mm | - | - | - |
| 1777978931 | 12.78° C | 77% | 1004.6 hPa | 0 mm | - | - | - |
| 1777977131 | 13.33° C | 77% | 1004.7 hPa | 0 mm | - | - | - |
| 1777975332 | 12.22° C | 77% | 1004.4 hPa | 0 mm | - | - | - |
| 1777973532 | 11.67° C | 76% | 1004.6 hPa | 0 mm | - | - | - |
| 1777971732 | 11.67° C | 76% | 1004.8 hPa | 0 mm | - | - | - |
| 1777969931 | 11.67° C | 77% | 1004.9 hPa | 0 mm | - | - | - |
| 1777968130 | 12.22° C | 77% | 1004.8 hPa | 0 mm | - | - | - |
| 1777966330 | 13.89° C | 75% | 1005 hPa | 0 mm | - | - | - |
| 1777964531 | 13.33° C | 76% | 1005.1 hPa | 0 mm | - | - | - |
| 1777962731 | 11.67° C | 77% | 1005.2 hPa | 0 mm | - | - | - |
| 1777960932 | 12.22° C | 76% | 1005.2 hPa | 0 mm | - | - | - |
| 1777959131 | 11.11° C | 76% | 1005.4 hPa | 0 mm | - | - | - |
| 1777957331 | 10.56° C | 77% | 1005.2 hPa | 0 mm | - | - | - |
| 1777955531 | 10° C | 77% | 1005.4 hPa | 0 mm | - | - | - |
| 1777953731 | 10° C | 77% | 1005.6 hPa | 0 mm | - | - | - |
* Rain since midnight (hover to see other rain measurements)
** Current wind speed in m/s (hover to see current wind gust speed)